Flag for Ireland Weather past 2 weeks in Dundalk, Ireland

Now
60 °F

Cool.


Feels Like: 58 °F
Forecast: 56 / 66 °F
Wind: 9 mph from Southeast

Location: Glenanne

Current Time: Jul 3, 2015 at 9:43:58 AM

Latest Report: Jul 3, 2015 at 9:00 AM


Visibility: 16 mi

Pressure: 30.20 "Hg

Humidity: 86%

Dew point: 56 °F

Location of DundalkLocation

Historic Weather in Dundalk — Graph

°F

Dundalk temperature yesterday

Maximum temperature yesterday: 67 °F (at 1:00 PM)
Minimum temperature yesterday: 56 °F (at 11:00 PM)
Average temperature yesterday: 61 °F

Past Weeks' High & Low Weather Summary

 TemperatureHumidityPressure
High73 °F (Jun 30, 2:00 PM)100% (Jun 19, 7:00 AM)30.22 "Hg (Jun 19, 7:00 AM)
Low44 °F (Jun 23, 5:00 AM)40% (Jun 23, 5:00 PM)29.73 "Hg (Jul 1, 6:00 PM)
Average58 °F84%29.98 "Hg
* Reported Jun 18 8:00 AM — Jul 3 8:00 AM, Dundalk, Weather by CustomWeather, © 2015

Note: Actual official high and low records may vary slightly from our data, if they occured in-between our weather recording intervals... More about our weather records

Advertising

Dundalk weather history for previous 24 hours

 ConditionsComfort  
Time TempWeatherWind HumidityBarometerVisibility
8:00 AM
Fri, Jul 3
58 °FCool.7 mph89%30.20 "Hg31 mi
7:00 AM56 °FCool.6 mph96%30.20 "Hg19 mi
6:00 AM54 °FCool.5 mph99%30.19 "Hg13 mi
5:00 AM51 °FFog.2 mph97%30.18 "Hg4 mi
4:00 AM53 °FCool.6 mph95%30.16 "Hg12 mi
3:00 AM54 °FCool.10 mph94%30.16 "Hg22 mi
2:00 AM55 °FCool.9 mph91%30.15 "Hg28 mi
1:00 AM56 °FCool.12 mph88%30.14 "Hg31 mi
12:00 AM55 °FCool.8 mph89%30.14 "Hg31 mi
11:00 PM
Thu, Jul 2
56 °FCool.6 mph87%30.12 "Hg25 mi
10:00 PM57 °FCool.5 mph86%30.11 "Hg14 mi
9:00 PM61 °FCool.7 mph73%30.09 "Hg25 mi
8:00 PM62 °FMild.9 mph63%30.06 "Hg31 mi
7:00 PM65 °FMild.10 mph56%30.04 "Hg17 mi
6:00 PM63 °FMild.6 mph69%30.02 "Hg28 mi
5:00 PM62 °FMild.7 mph72%30.03 "Hg28 mi
4:00 PM65 °FMild.8 mph57%30.03 "Hg31 mi
3:00 PM65 °FMild.6 mphN/A30.01 "Hg25 mi
2:00 PM66 °FMild.7 mphN/A29.98 "Hg22 mi
1:00 PM67 °FMild.6 mphN/A29.96 "Hg22 mi
12:00 PMN/A7 mphN/AN/A25 mi
11:00 AMN/A8 mphN/AN/A31 mi
10:00 AM61 °FCool.6 mph86%29.96 "Hg22 mi
9:00 AM60 °FCool.7 mph95%29.93 "Hg28 mi
Weather by CustomWeather, © 2015

See weather overviewHow to use our weather pages